Location: Miles
(41.4492°N, 81.6087°W)
Time: 22:44:48
(UTC+00:00)

SR - Visible Passes

Search period start: 11 September 2024 00:00
Search period end: 21 September 2024 00:00
Orbit: 579 x 855 km, 66.7° (Epoch: 11 September)

Date Brightness Start Highest point End Pass type
(mag) Time Alt. Az. Time Alt. Az. Time Alt. Az.
11 Sep ? 03:59:37 10° NNW 03:59:47 11° NNW 03:59:47 11° NNW visible
12 Sep ? 03:07:22 10° N 03:08:07 13° N 03:08:07 13° N visible
13 Sep ? 02:16:00 10° NNE 02:16:29 11° NNE 02:16:29 11° NNE visible
13 Sep ? 03:55:29 10° NNW 03:55:39 11° NNW 03:55:39 11° NNW visible
14 Sep ? 03:02:55 10° NNW 03:04:01 16° N 03:04:01 16° N visible
15 Sep ? 02:10:48 10° N 02:12:25 15° NNE 02:12:25 15° NNE visible
15 Sep ? 03:51:28 10° NW 03:51:35 11° NW 03:51:35 11° NW visible
16 Sep ? 02:58:38 10° NNW 03:00:00 19° NNW 03:00:00 19° NNW visible
17 Sep ? 02:06:10 10° N 02:08:25 22° NNE 02:08:25 22° NNE visible
17 Sep ? 03:47:35 10° NW 03:47:35 10° NW 03:47:35 10° NW visible
18 Sep ? 01:14:15 10° N 01:16:50 14° NE 01:16:53 14° NE visible
18 Sep ? 02:54:27 10° NNW 02:56:04 22° NNW 02:56:04 22° NNW visible
19 Sep ? 02:01:43 10° NNW 02:04:33 31° N 02:04:33 31° N visible
20 Sep ? 01:09:21 10° N 01:13:01 22° NE 01:13:04 22° NE visible
20 Sep ? 02:50:24 10° NW 02:52:15 23° NW 02:52:15 23° NW visible
